QTR8192 SBKP-SCEL

Flight info

Callsign QTR8192
Flight time 3h 23m
Altitude 28000
Route ASETA UL310 ARULA UM400 CBA UZ105 UMKAL UMKAL7C
Aircraft B77L/H-SDE1E2E3FGHIJ2J3J4J5M1RWXY/LB1D1

Departure

Time 2026-05-05 12:39
Airport Viracopos International Airport (SBKP)

Arrival

Time 2026-05-05 16:02
Airport Comodoro Arturo Merino Benítez International Airport (SCEL)
Time Latitude Longitude Altitude Speed Heading
2026-05-05 12:11 -23.00633 -47.14245 2153 ft 0 kts 218°
2026-05-05 12:30 -23.00629 -47.14243 2162 ft 3 kts 218°
2026-05-05 12:30 -23.00608 -47.14225 2153 ft 4 kts 218°
2026-05-05 12:30 -23.00587 -47.14207 2153 ft 4 kts 218°
2026-05-05 12:31 -23.00568 -47.14192 2153 ft 4 kts 194°
2026-05-05 12:31 -23.00547 -47.14196 2153 ft 4 kts 131°
2026-05-05 12:31 -23.00533 -47.14216 2153 ft 1 kts 127°
2026-05-05 12:31 -23.00531 -47.14220 2153 ft 0 kts 127°
2026-05-05 12:33 -23.00531 -47.14219 2153 ft 0 kts 127°
2026-05-05 12:33 -23.00561 -47.14176 2153 ft 16 kts 127°
2026-05-05 12:34 -23.00633 -47.14075 2154 ft 17 kts 127°
2026-05-05 12:34 -23.00699 -47.13969 2153 ft 17 kts 113°
2026-05-05 12:34 -23.00723 -47.13851 2155 ft 6 kts 82°
2026-05-05 12:34 -23.00689 -47.13842 2159 ft 6 kts 325°
2026-05-05 12:35 -23.00650 -47.13895 2154 ft 14 kts 309°
2026-05-05 12:35 -23.00574 -47.13997 2160 ft 18 kts 308°
2026-05-05 12:35 -23.00497 -47.14103 2153 ft 18 kts 308°
2026-05-05 12:35 -23.00422 -47.14208 2153 ft 18 kts 308°
2026-05-05 12:36 -23.00346 -47.14315 2156 ft 18 kts 307°
2026-05-05 12:36 -23.00270 -47.14423 2154 ft 18 kts 307°
2026-05-05 12:36 -23.00195 -47.14531 2155 ft 18 kts 307°
2026-05-05 12:36 -23.00119 -47.14638 2155 ft 18 kts 309°
2026-05-05 12:37 -23.00041 -47.14743 2157 ft 18 kts 309°
2026-05-05 12:37 -22.99958 -47.14783 2156 ft 13 kts 20°
2026-05-05 12:37 -22.99894 -47.14714 2160 ft 13 kts 66°
2026-05-05 12:37 -22.99910 -47.14612 2153 ft 21 kts 128°
2026-05-05 12:38 -23.00096 -47.14352 2157 ft 75 kts 127°
2026-05-05 12:38 -23.00556 -47.13708 2155 ft 139 kts 128°
2026-05-05 12:38 -23.01253 -47.12720 2168 ft 185 kts 126°
2026-05-05 12:38 -23.02064 -47.11603 2598 ft 191 kts 127°
2026-05-05 12:39 -23.02904 -47.10498 3288 ft 188 kts 133°
2026-05-05 12:39 -23.04072 -47.09803 3554 ft 207 kts 174°
2026-05-05 12:39 -23.05477 -47.10163 3789 ft 218 kts 213°
2026-05-05 12:39 -23.06780 -47.11111 3977 ft 235 kts 213°
2026-05-05 12:40 -23.08247 -47.12086 4219 ft 256 kts 211°
2026-05-05 12:40 -23.09777 -47.13139 4621 ft 267 kts 224°
2026-05-05 12:40 -23.10779 -47.14840 5088 ft 272 kts 257°
2026-05-05 12:40 -23.10957 -47.16878 5695 ft 273 kts 269°
2026-05-05 12:41 -23.11007 -47.18957 6355 ft 276 kts 269°
2026-05-05 12:41 -23.11056 -47.21030 7150 ft 273 kts 268°
2026-05-05 12:41 -23.11104 -47.23090 7735 ft 279 kts 268°
2026-05-05 12:41 -23.11152 -47.25213 8340 ft 283 kts 268°
2026-05-05 12:42 -23.11203 -47.27368 8935 ft 287 kts 267°
2026-05-05 12:42 -23.11255 -47.29553 9563 ft 291 kts 267°
2026-05-05 12:42 -23.11309 -47.31764 10190 ft 294 kts 267°
2026-05-05 12:42 -23.11363 -47.34017 10647 ft 304 kts 267°
2026-05-05 12:43 -23.11417 -47.36165 10770 ft 324 kts 267°
2026-05-05 12:43 -23.11482 -47.38746 10947 ft 346 kts 267°
2026-05-05 12:43 -23.11548 -47.41443 11100 ft 368 kts 267°
2026-05-05 12:43 -23.11616 -47.44275 11488 ft 381 kts 267°
2026-05-05 12:44 -23.11683 -47.47147 12063 ft 388 kts 267°
2026-05-05 12:44 -23.11753 -47.50092 12823 ft 392 kts 267°
2026-05-05 12:44 -23.11823 -47.53065 13603 ft 395 kts 267°
2026-05-05 12:44 -23.11894 -47.56061 14300 ft 399 kts 266°
2026-05-05 12:45 -23.11966 -47.59092 14953 ft 402 kts 266°
2026-05-05 12:45 -23.12038 -47.62140 15665 ft 404 kts 266°
2026-05-05 12:45 -23.12109 -47.65195 16372 ft 405 kts 266°
2026-05-05 12:45 -23.12180 -47.68264 17049 ft 408 kts 266°
2026-05-05 12:46 -23.12251 -47.71357 17702 ft 411 kts 266°
2026-05-05 12:46 -23.12321 -47.74460 18338 ft 413 kts 265°
2026-05-05 12:46 -23.12392 -47.77600 18933 ft 416 kts 265°
2026-05-05 12:46 -23.12464 -47.80759 19456 ft 419 kts 266°
2026-05-05 12:47 -23.12649 -47.83911 19852 ft 419 kts 257°
2026-05-05 12:47 -23.13602 -47.86897 20198 ft 420 kts 239°
2026-05-05 12:47 -23.15220 -47.89475 20684 ft 419 kts 232°
2026-05-05 12:47 -23.16963 -47.92028 21137 ft 423 kts 232°
2026-05-05 12:48 -23.18718 -47.94621 21656 ft 426 kts 232°
2026-05-05 12:48 -23.20471 -47.97242 22159 ft 430 kts 233°
2026-05-05 12:48 -23.22224 -47.99891 22649 ft 433 kts 233°
2026-05-05 12:48 -23.23927 -48.02479 23104 ft 437 kts 233°
2026-05-05 12:49 -23.25699 -48.05177 23573 ft 440 kts 233°
2026-05-05 12:49 -23.27475 -48.07906 23966 ft 442 kts 236°
2026-05-05 12:49 -23.28846 -48.10918 24268 ft 449 kts 251°
2026-05-05 12:49 -23.29427 -48.14255 24648 ft 450 kts 261°
2026-05-05 12:50 -23.29833 -48.17609 25027 ft 453 kts 260°
2026-05-05 12:50 -23.30276 -48.21007 25469 ft 455 kts 259°
2026-05-05 12:50 -23.30749 -48.24412 25949 ft 455 kts 259°
2026-05-05 12:50 -23.31239 -48.27816 26434 ft 456 kts 259°
2026-05-05 12:51 -23.31736 -48.31236 26892 ft 458 kts 259°
2026-05-05 12:51 -23.32232 -48.34663 27331 ft 460 kts 259°
2026-05-05 12:51 -23.32851 -48.38071 27758 ft 460 kts 252°
2026-05-05 12:51 -23.33882 -48.41365 28173 ft 460 kts 246°
2026-05-05 12:52 -23.36864 -48.47528 28234 ft 459 kts 235°
2026-05-05 12:52 -23.40470 -48.53270 28233 ft 458 kts 234°
2026-05-05 12:53 -23.44054 -48.58958 28233 ft 459 kts 235°
2026-05-05 12:53 -23.47637 -48.64714 28228 ft 459 kts 235°
2026-05-05 12:54 -23.52989 -48.73383 28235 ft 459 kts 235°
2026-05-05 12:55 -23.55953 -48.78193 28231 ft 459 kts 235°
2026-05-05 12:55 -23.59515 -48.83980 28238 ft 459 kts 235°
2026-05-05 12:56 -23.63658 -48.90716 28230 ft 459 kts 235°
2026-05-05 12:56 -23.66636 -48.95563 28231 ft 459 kts 235°
2026-05-05 12:57 -23.70126 -49.01251 28235 ft 459 kts 236°
2026-05-05 12:57 -23.73660 -49.07016 28237 ft 459 kts 236°
2026-05-05 12:58 -23.77213 -49.12819 28234 ft 459 kts 236°
2026-05-05 12:58 -23.80760 -49.18621 28231 ft 459 kts 236°
2026-05-05 12:59 -23.84310 -49.24432 28232 ft 459 kts 236°
2026-05-05 12:59 -23.87855 -49.30242 28230 ft 459 kts 236°
2026-05-05 13:00 -23.93166 -49.38960 28238 ft 459 kts 236°
2026-05-05 13:01 -24.00218 -49.50560 28235 ft 459 kts 236°
2026-05-05 13:01 -24.03750 -49.56381 28238 ft 459 kts 236°
2026-05-05 13:02 -24.07326 -49.62177 28239 ft 459 kts 233°
2026-05-05 13:02 -24.11539 -49.67410 28245 ft 459 kts 226°
2026-05-05 13:03 -24.15985 -49.72442 28240 ft 459 kts 226°
2026-05-05 13:03 -24.20381 -49.77460 28239 ft 459 kts 227°
2026-05-05 13:04 -24.24786 -49.82524 28243 ft 459 kts 227°
2026-05-05 13:04 -24.29186 -49.87597 28238 ft 459 kts 227°
2026-05-05 13:05 -24.33586 -49.92674 28242 ft 459 kts 227°
2026-05-05 13:05 -24.37984 -49.97752 28241 ft 459 kts 227°
2026-05-05 13:06 -24.42302 -50.02743 28252 ft 458 kts 227°
2026-05-05 13:06 -24.46689 -50.07821 28243 ft 458 kts 227°
2026-05-05 13:07 -24.51046 -50.12867 28247 ft 458 kts 227°
2026-05-05 13:07 -24.55433 -50.17955 28243 ft 458 kts 227°
2026-05-05 13:08 -24.59815 -50.23045 28247 ft 458 kts 227°
2026-05-05 13:08 -24.64167 -50.28106 28244 ft 457 kts 227°
2026-05-05 13:09 -24.68538 -50.33194 28240 ft 457 kts 227°
2026-05-05 13:09 -24.72904 -50.38284 28245 ft 457 kts 227°
2026-05-05 13:10 -24.77267 -50.43373 28249 ft 457 kts 227°
2026-05-05 13:10 -24.81623 -50.48464 28247 ft 456 kts 227°
2026-05-05 13:11 -24.85969 -50.53555 28256 ft 456 kts 227°
2026-05-05 13:11 -24.90310 -50.58650 28246 ft 456 kts 228°
2026-05-05 13:12 -24.94656 -50.63755 28246 ft 456 kts 228°
2026-05-05 13:12 -24.98972 -50.68824 28249 ft 456 kts 228°
2026-05-05 13:13 -25.03315 -50.73907 28248 ft 455 kts 227°
2026-05-05 13:13 -25.07659 -50.78993 28245 ft 455 kts 228°
2026-05-05 13:14 -25.11998 -50.84083 28248 ft 455 kts 228°
2026-05-05 13:14 -25.16318 -50.89158 28257 ft 455 kts 228°
2026-05-05 13:15 -25.20655 -50.94258 28250 ft 455 kts 228°
2026-05-05 13:15 -25.24988 -50.99361 28246 ft 455 kts 228°
2026-05-05 13:16 -25.29246 -51.04379 28253 ft 455 kts 228°
2026-05-05 13:16 -25.33572 -51.09500 28251 ft 455 kts 228°
2026-05-05 13:17 -25.37852 -51.14587 28246 ft 454 kts 228°
2026-05-05 13:17 -25.42163 -51.19716 28247 ft 455 kts 228°
2026-05-05 13:18 -25.46467 -51.24840 28252 ft 455 kts 228°
2026-05-05 13:18 -25.50780 -51.29982 28250 ft 455 kts 228°
2026-05-05 13:19 -25.55090 -51.35124 28249 ft 455 kts 228°
2026-05-05 13:19 -25.59329 -51.40325 28237 ft 454 kts 232°
2026-05-05 13:20 -25.63151 -51.45836 28253 ft 454 kts 233°
2026-05-05 13:20 -25.66973 -51.51415 28253 ft 454 kts 233°
2026-05-05 13:21 -25.70800 -51.56985 28242 ft 454 kts 233°
2026-05-05 13:21 -25.74632 -51.62549 28245 ft 454 kts 233°
2026-05-05 13:22 -25.78473 -51.68126 28241 ft 454 kts 233°
2026-05-05 13:22 -25.82305 -51.73697 28245 ft 454 kts 233°
2026-05-05 13:23 -25.86111 -51.79238 28249 ft 453 kts 233°
2026-05-05 13:23 -25.89937 -51.84814 28246 ft 453 kts 233°
2026-05-05 13:24 -25.93762 -51.90396 28245 ft 453 kts 233°
2026-05-05 13:24 -25.97577 -51.95970 28242 ft 453 kts 234°
2026-05-05 13:25 -26.01322 -52.01447 28247 ft 452 kts 233°
2026-05-05 13:25 -26.05105 -52.06988 28239 ft 452 kts 234°
2026-05-05 13:26 -26.08907 -52.12563 28240 ft 452 kts 234°
2026-05-05 13:26 -26.12700 -52.18132 28231 ft 452 kts 234°
2026-05-05 13:27 -26.16497 -52.23712 28226 ft 452 kts 234°
2026-05-05 13:27 -26.20287 -52.29290 28225 ft 451 kts 234°
2026-05-05 13:28 -26.24074 -52.34870 28222 ft 451 kts 234°
2026-05-05 13:28 -26.27830 -52.40410 28215 ft 451 kts 234°
2026-05-05 13:29 -26.31608 -52.45991 28211 ft 451 kts 234°
2026-05-05 13:29 -26.35382 -52.51573 28210 ft 450 kts 234°
2026-05-05 13:30 -26.39147 -52.57147 28210 ft 449 kts 234°
2026-05-05 13:30 -26.42910 -52.62726 28207 ft 449 kts 234°
2026-05-05 13:31 -26.46660 -52.68293 28202 ft 449 kts 234°
2026-05-05 13:31 -26.50400 -52.73852 28202 ft 448 kts 234°
2026-05-05 13:32 -26.54131 -52.79403 28192 ft 448 kts 234°
2026-05-05 13:32 -26.57870 -52.84972 28195 ft 448 kts 234°
2026-05-05 13:33 -26.61614 -52.90557 28190 ft 448 kts 234°
2026-05-05 13:33 -26.65356 -52.96148 28184 ft 448 kts 234°
2026-05-05 13:34 -26.69029 -53.01640 28192 ft 449 kts 234°
2026-05-05 13:34 -26.72736 -53.07191 28177 ft 448 kts 234°
2026-05-05 13:35 -26.76468 -53.12786 28175 ft 448 kts 234°
2026-05-05 13:35 -26.80193 -53.18378 28174 ft 448 kts 234°
2026-05-05 13:36 -26.83955 -53.23950 28175 ft 448 kts 232°
2026-05-05 13:36 -26.88016 -53.29199 28162 ft 448 kts 230°
2026-05-05 13:37 -26.92132 -53.34453 28161 ft 448 kts 231°
2026-05-05 13:37 -26.96221 -53.39718 28177 ft 448 kts 231°
2026-05-05 13:38 -27.00303 -53.44995 28157 ft 448 kts 231°
2026-05-05 13:38 -27.04380 -53.50309 28158 ft 448 kts 231°
2026-05-05 13:39 -27.08398 -53.55600 28162 ft 448 kts 231°
2026-05-05 13:39 -27.12441 -53.60930 28162 ft 448 kts 231°
2026-05-05 13:40 -27.16490 -53.66269 28158 ft 448 kts 231°
2026-05-05 13:40 -27.20531 -53.71600 28164 ft 448 kts 231°
2026-05-05 13:41 -27.24574 -53.76940 28154 ft 448 kts 231°
2026-05-05 13:41 -27.28610 -53.82278 28157 ft 448 kts 231°
2026-05-05 13:42 -27.32625 -53.87595 28152 ft 448 kts 231°
2026-05-05 13:42 -27.36002 -53.92073 28162 ft 448 kts 231°
2026-05-05 13:43 -27.40006 -53.97388 28151 ft 448 kts 232°
2026-05-05 13:43 -27.43964 -54.02646 28132 ft 448 kts 232°
2026-05-05 13:44 -27.47993 -54.08007 28149 ft 447 kts 232°
2026-05-05 13:44 -27.52013 -54.13363 28148 ft 447 kts 232°
2026-05-05 13:45 -27.55997 -54.18679 28145 ft 446 kts 232°
2026-05-05 13:45 -27.60007 -54.24033 28142 ft 447 kts 232°
2026-05-05 13:46 -27.63758 -54.29599 28147 ft 445 kts 237°
2026-05-05 13:46 -27.67221 -54.35388 28137 ft 445 kts 238°
2026-05-05 13:47 -27.70681 -54.41175 28119 ft 446 kts 238°
2026-05-05 13:47 -27.74167 -54.46985 28116 ft 446 kts 237°
2026-05-05 13:48 -27.77622 -54.52738 28129 ft 446 kts 238°
2026-05-05 13:48 -27.81107 -54.58546 28142 ft 445 kts 238°
2026-05-05 13:49 -27.84583 -54.64347 28119 ft 445 kts 238°
2026-05-05 13:49 -27.88051 -54.70143 28121 ft 445 kts 238°
2026-05-05 13:50 -27.91521 -54.75952 28114 ft 445 kts 238°
2026-05-05 13:50 -27.94959 -54.81714 28117 ft 445 kts 238°
2026-05-05 13:51 -27.98424 -54.87528 28112 ft 445 kts 238°
2026-05-05 13:51 -28.01876 -54.93330 28109 ft 445 kts 238°
2026-05-05 13:52 -28.05314 -54.99114 28110 ft 445 kts 238°
2026-05-05 13:52 -28.08702 -55.04822 28108 ft 445 kts 238°
2026-05-05 13:53 -28.12153 -55.10647 28107 ft 445 kts 238°
2026-05-05 13:53 -28.15600 -55.16470 28106 ft 445 kts 238°
2026-05-05 13:54 -28.19043 -55.22295 28104 ft 445 kts 238°
2026-05-05 13:54 -28.22485 -55.28126 28101 ft 445 kts 238°
2026-05-05 13:55 -28.25925 -55.33962 28107 ft 445 kts 238°
2026-05-05 13:55 -28.29362 -55.39801 28098 ft 444 kts 238°
2026-05-05 13:56 -28.32793 -55.45638 28097 ft 444 kts 238°
2026-05-05 13:56 -28.36198 -55.51440 28092 ft 444 kts 238°
2026-05-05 13:57 -28.39618 -55.57273 28089 ft 444 kts 239°
2026-05-05 13:57 -28.43038 -55.63113 28085 ft 444 kts 239°
2026-05-05 13:58 -28.46458 -55.68962 28088 ft 444 kts 239°
2026-05-05 13:58 -28.49881 -55.74823 28088 ft 444 kts 239°
2026-05-05 13:59 -28.54981 -55.83576 28082 ft 445 kts 239°
2026-05-05 14:00 -28.60105 -55.92387 28086 ft 445 kts 239°
2026-05-05 14:00 -28.63523 -55.98276 28087 ft 445 kts 239°
2026-05-05 14:01 -28.66877 -56.04062 28084 ft 445 kts 239°
2026-05-05 14:01 -28.70289 -56.09954 28077 ft 445 kts 239°
2026-05-05 14:02 -28.73412 -56.15958 28092 ft 443 kts 246°
2026-05-05 14:02 -28.75771 -56.22440 28083 ft 442 kts 249°
2026-05-05 14:03 -28.78083 -56.28946 28076 ft 442 kts 249°
2026-05-05 14:03 -28.80410 -56.35438 28068 ft 442 kts 249°
2026-05-05 14:04 -28.82723 -56.41885 28073 ft 442 kts 249°
2026-05-05 14:04 -28.85051 -56.48385 28077 ft 442 kts 249°
2026-05-05 14:05 -28.87375 -56.54886 28071 ft 442 kts 249°
2026-05-05 14:05 -28.89687 -56.61387 28069 ft 442 kts 250°
2026-05-05 14:06 -28.91990 -56.67891 28065 ft 442 kts 250°
2026-05-05 14:06 -28.94287 -56.74387 28065 ft 442 kts 250°
2026-05-05 14:07 -28.96595 -56.80926 28060 ft 442 kts 250°
2026-05-05 14:07 -28.98893 -56.87445 28063 ft 442 kts 250°
2026-05-05 14:08 -29.01169 -56.93915 28059 ft 442 kts 250°
2026-05-05 14:08 -29.03422 -57.00330 28060 ft 442 kts 250°
2026-05-05 14:09 -29.05710 -57.06857 28055 ft 442 kts 250°
2026-05-05 14:09 -29.07995 -57.13387 28058 ft 442 kts 250°
2026-05-05 14:10 -29.10275 -57.19915 28047 ft 442 kts 250°
2026-05-05 14:10 -29.12546 -57.26430 28051 ft 442 kts 250°
2026-05-05 14:11 -29.14827 -57.32983 28048 ft 442 kts 250°
2026-05-05 14:11 -29.17098 -57.39520 28054 ft 442 kts 250°
2026-05-05 14:12 -29.19365 -57.46059 28045 ft 442 kts 250°
2026-05-05 14:12 -29.21626 -57.52596 28038 ft 442 kts 250°
2026-05-05 14:13 -29.23872 -57.59097 28041 ft 442 kts 250°
2026-05-05 14:13 -29.26189 -57.65623 28052 ft 442 kts 249°
2026-05-05 14:14 -29.28628 -57.72094 28040 ft 442 kts 249°
2026-05-05 14:14 -29.31060 -57.78558 28042 ft 442 kts 249°
2026-05-05 14:15 -29.33487 -57.85069 28036 ft 442 kts 249°
2026-05-05 14:15 -29.35895 -57.91560 28043 ft 442 kts 249°
2026-05-05 14:16 -29.38297 -57.98049 28038 ft 442 kts 249°
2026-05-05 14:16 -29.40658 -58.04434 28027 ft 442 kts 249°
2026-05-05 14:17 -29.42997 -58.10916 28031 ft 442 kts 251°
2026-05-05 14:17 -29.45123 -58.17520 28027 ft 441 kts 252°
2026-05-05 14:18 -29.47219 -58.24151 28034 ft 441 kts 252°
2026-05-05 14:18 -29.49335 -58.30765 28028 ft 441 kts 252°
2026-05-05 14:19 -29.51463 -58.37373 28020 ft 441 kts 252°
2026-05-05 14:19 -29.53593 -58.43989 28027 ft 441 kts 252°
2026-05-05 14:20 -29.55719 -58.50609 28016 ft 442 kts 252°
2026-05-05 14:20 -29.57828 -58.57193 28026 ft 442 kts 252°
2026-05-05 14:21 -29.59950 -58.63829 28022 ft 442 kts 252°
2026-05-05 14:21 -29.62066 -58.70460 28015 ft 442 kts 252°
2026-05-05 14:22 -29.64179 -58.77095 28015 ft 442 kts 252°
2026-05-05 14:22 -29.66290 -58.83737 28010 ft 442 kts 252°
2026-05-05 14:23 -29.68390 -58.90330 27994 ft 442 kts 252°
2026-05-05 14:23 -29.70575 -58.96925 28012 ft 442 kts 251°
2026-05-05 14:24 -29.72746 -59.03416 28002 ft 442 kts 251°
2026-05-05 14:24 -29.74947 -59.10036 27992 ft 442 kts 252°
2026-05-05 14:25 -29.77136 -59.16655 28010 ft 442 kts 252°
2026-05-05 14:25 -29.78228 -59.19966 27995 ft 443 kts 252°
2026-05-05 14:25 -29.79321 -59.23280 28005 ft 443 kts 252°
2026-05-05 14:26 -29.81504 -59.29914 27988 ft 443 kts 252°
2026-05-05 14:26 -29.83683 -59.36547 27991 ft 443 kts 252°
2026-05-05 14:27 -29.85495 -59.42072 27996 ft 443 kts 252°
2026-05-05 14:27 -29.86583 -59.45395 27994 ft 443 kts 252°
2026-05-05 14:27 -29.88023 -59.49799 27997 ft 443 kts 252°
2026-05-05 14:28 -29.88756 -59.52042 27997 ft 442 kts 252°
2026-05-05 14:28 -29.89840 -59.55360 27990 ft 442 kts 252°
2026-05-05 14:28 -29.90909 -59.58639 27991 ft 442 kts 252°
2026-05-05 14:28 -29.91992 -59.61961 27993 ft 442 kts 252°
2026-05-05 14:29 -29.93069 -59.65270 27988 ft 441 kts 252°
2026-05-05 14:29 -29.94146 -59.68582 27988 ft 441 kts 252°
2026-05-05 14:29 -29.95224 -59.71898 27987 ft 441 kts 252°
2026-05-05 14:29 -29.96298 -59.75208 27987 ft 441 kts 252°
2026-05-05 14:30 -29.97373 -59.78524 27985 ft 441 kts 252°
2026-05-05 14:30 -29.98450 -59.81847 27987 ft 441 kts 252°
2026-05-05 14:30 -29.99523 -59.85164 27983 ft 441 kts 252°
2026-05-05 14:30 -30.00591 -59.88467 27985 ft 441 kts 252°
2026-05-05 14:31 -30.01663 -59.91786 27992 ft 441 kts 252°
2026-05-05 14:31 -30.02718 -59.95055 27985 ft 441 kts 252°
2026-05-05 14:31 -30.03792 -59.98386 27981 ft 441 kts 252°
2026-05-05 14:31 -30.04825 -60.01595 27980 ft 441 kts 252°
2026-05-05 14:32 -30.05893 -60.04917 27979 ft 441 kts 252°
2026-05-05 14:32 -30.06960 -60.08234 27977 ft 441 kts 252°
2026-05-05 14:32 -30.08024 -60.11547 27979 ft 441 kts 252°
2026-05-05 14:32 -30.09088 -60.14867 27977 ft 441 kts 252°
2026-05-05 14:33 -30.10150 -60.18179 27984 ft 441 kts 252°
2026-05-05 14:33 -30.11216 -60.21509 27981 ft 441 kts 252°
2026-05-05 14:33 -30.12278 -60.24832 27978 ft 441 kts 252°
2026-05-05 14:33 -30.13339 -60.28152 27974 ft 440 kts 252°
2026-05-05 14:34 -30.14399 -60.31475 27969 ft 440 kts 252°
2026-05-05 14:34 -30.15459 -60.34798 27972 ft 440 kts 252°
2026-05-05 14:34 -30.16516 -60.38119 27976 ft 440 kts 252°
2026-05-05 14:34 -30.17573 -60.41438 27977 ft 440 kts 252°
2026-05-05 14:35 -30.18631 -60.44767 27966 ft 441 kts 253°
2026-05-05 14:35 -30.19676 -60.48058 27980 ft 440 kts 252°
2026-05-05 14:35 -30.20730 -60.51382 27973 ft 440 kts 252°
2026-05-05 14:35 -30.21783 -60.54706 27962 ft 440 kts 253°
2026-05-05 14:36 -30.22836 -60.58033 27968 ft 440 kts 253°
2026-05-05 14:36 -30.23886 -60.61354 27967 ft 440 kts 253°
2026-05-05 14:36 -30.24935 -60.64677 27961 ft 440 kts 253°
2026-05-05 14:36 -30.25984 -60.68002 27977 ft 440 kts 253°
2026-05-05 14:37 -30.27033 -60.71332 27965 ft 440 kts 253°
2026-05-05 14:37 -30.28081 -60.74658 27972 ft 440 kts 253°
2026-05-05 14:37 -30.29131 -60.77997 27953 ft 441 kts 253°
2026-05-05 14:37 -30.30179 -60.81332 27954 ft 440 kts 253°
2026-05-05 14:38 -30.31210 -60.84618 27951 ft 440 kts 253°
2026-05-05 14:38 -30.32255 -60.87949 27963 ft 440 kts 253°
2026-05-05 14:38 -30.33290 -60.91255 27963 ft 440 kts 253°
2026-05-05 14:38 -30.34337 -60.94601 27961 ft 440 kts 253°
2026-05-05 14:39 -30.35378 -60.97932 27965 ft 440 kts 253°
2026-05-05 14:39 -30.36363 -61.01084 27959 ft 440 kts 253°
2026-05-05 14:39 -30.37403 -61.04417 27959 ft 440 kts 253°
2026-05-05 14:39 -30.38442 -61.07751 27960 ft 440 kts 253°
2026-05-05 14:40 -30.39481 -61.11084 27954 ft 440 kts 253°
2026-05-05 14:40 -30.40519 -61.14412 27961 ft 440 kts 253°
2026-05-05 14:40 -30.41557 -61.17744 27957 ft 440 kts 253°
2026-05-05 14:40 -30.42594 -61.21078 27954 ft 440 kts 253°
2026-05-05 14:41 -30.43631 -61.24411 27953 ft 439 kts 253°
2026-05-05 14:41 -30.44666 -61.27745 27954 ft 439 kts 253°
2026-05-05 14:41 -30.45701 -61.31085 27953 ft 439 kts 253°
2026-05-05 14:41 -30.46730 -61.34406 27963 ft 439 kts 253°
2026-05-05 14:42 -30.47754 -61.37715 27957 ft 439 kts 253°
2026-05-05 14:42 -30.48784 -61.41048 27951 ft 439 kts 253°
2026-05-05 14:42 -30.49813 -61.44380 27950 ft 439 kts 253°
2026-05-05 14:42 -30.50841 -61.47711 27950 ft 438 kts 253°
2026-05-05 14:43 -30.51870 -61.51047 27945 ft 438 kts 253°
2026-05-05 14:43 -30.52891 -61.54356 27947 ft 438 kts 253°
2026-05-05 14:43 -30.53927 -61.57704 27945 ft 438 kts 253°
2026-05-05 14:43 -30.54956 -61.61025 27945 ft 438 kts 253°
2026-05-05 14:44 -30.55982 -61.64343 27948 ft 438 kts 253°
2026-05-05 14:44 -30.57011 -61.67678 27956 ft 438 kts 253°
2026-05-05 14:44 -30.58034 -61.71017 27944 ft 438 kts 253°
2026-05-05 14:44 -30.59035 -61.74297 27947 ft 438 kts 253°
2026-05-05 14:45 -30.60050 -61.77634 27948 ft 438 kts 253°
2026-05-05 14:45 -30.61065 -61.80971 27948 ft 438 kts 253°
2026-05-05 14:45 -30.62078 -61.84306 27948 ft 438 kts 253°
2026-05-05 14:45 -30.63093 -61.87650 27947 ft 438 kts 253°
2026-05-05 14:46 -30.64105 -61.90985 27945 ft 438 kts 253°
2026-05-05 14:46 -30.65117 -61.94323 27947 ft 438 kts 253°
2026-05-05 14:46 -30.66130 -61.97666 27945 ft 438 kts 253°
2026-05-05 14:46 -30.67101 -62.00876 27945 ft 438 kts 253°
2026-05-05 14:47 -30.68111 -62.04217 27945 ft 438 kts 253°
2026-05-05 14:47 -30.69107 -62.07515 27943 ft 438 kts 253°
2026-05-05 14:47 -30.70130 -62.10909 27941 ft 438 kts 253°
2026-05-05 14:47 -30.71125 -62.14212 27943 ft 438 kts 253°
2026-05-05 14:48 -30.72132 -62.17558 27947 ft 438 kts 253°
2026-05-05 14:48 -30.73138 -62.20904 27947 ft 438 kts 253°
2026-05-05 14:48 -30.74140 -62.24239 27954 ft 438 kts 253°
2026-05-05 14:48 -30.75138 -62.27569 27950 ft 438 kts 253°
2026-05-05 14:49 -30.76149 -62.30941 27946 ft 438 kts 253°
2026-05-05 14:49 -30.77145 -62.34268 27943 ft 437 kts 253°
2026-05-05 14:49 -30.78150 -62.37627 27944 ft 437 kts 253°
2026-05-05 14:49 -30.79151 -62.40968 27945 ft 437 kts 253°
2026-05-05 14:50 -30.80151 -62.44300 27942 ft 437 kts 253°
2026-05-05 14:50 -30.81156 -62.47650 27945 ft 437 kts 253°
2026-05-05 14:50 -30.82155 -62.50981 27954 ft 437 kts 253°
2026-05-05 14:50 -30.83143 -62.54278 27956 ft 437 kts 253°
2026-05-05 14:51 -30.84141 -62.57614 27951 ft 437 kts 253°
2026-05-05 14:51 -30.85138 -62.60955 27946 ft 437 kts 253°
2026-05-05 14:51 -30.86121 -62.64248 27947 ft 436 kts 253°
2026-05-05 14:51 -30.87130 -62.67633 27947 ft 436 kts 253°
2026-05-05 14:52 -30.88122 -62.70967 27942 ft 436 kts 253°
2026-05-05 14:52 -30.89113 -62.74300 27943 ft 436 kts 253°
2026-05-05 14:52 -30.90095 -62.77607 27948 ft 435 kts 253°
2026-05-05 14:52 -30.91092 -62.80966 27949 ft 435 kts 253°
2026-05-05 14:53 -30.92082 -62.84306 27969 ft 435 kts 253°
2026-05-05 14:53 -30.93068 -62.87638 27955 ft 435 kts 253°
2026-05-05 14:53 -30.94042 -62.90930 27953 ft 435 kts 253°
2026-05-05 14:53 -30.95039 -62.94305 27947 ft 435 kts 253°
2026-05-05 14:54 -30.96010 -62.97595 27937 ft 434 kts 253°
2026-05-05 14:54 -30.96951 -63.00788 27946 ft 434 kts 253°
2026-05-05 14:54 -30.97936 -63.04134 27942 ft 434 kts 253°
2026-05-05 14:54 -30.98916 -63.07465 27943 ft 433 kts 253°
2026-05-05 14:55 -30.99884 -63.10758 27945 ft 433 kts 253°
2026-05-05 14:55 -31.00864 -63.14096 27948 ft 433 kts 253°
2026-05-05 14:55 -31.01838 -63.17416 27945 ft 433 kts 253°
2026-05-05 14:55 -31.02784 -63.20651 27934 ft 433 kts 254°
2026-05-05 14:56 -31.03779 -63.24069 27943 ft 433 kts 254°
2026-05-05 14:56 -31.04733 -63.27359 27947 ft 433 kts 254°
2026-05-05 14:56 -31.05699 -63.30695 27943 ft 433 kts 254°
2026-05-05 14:56 -31.06656 -63.34004 27934 ft 433 kts 254°
2026-05-05 14:57 -31.07624 -63.37353 27942 ft 433 kts 254°
2026-05-05 14:57 -31.08585 -63.40681 27941 ft 432 kts 254°
2026-05-05 14:57 -31.09532 -63.43966 27945 ft 432 kts 254°
2026-05-05 14:57 -31.10491 -63.47291 27935 ft 433 kts 254°
2026-05-05 14:58 -31.11448 -63.50614 27943 ft 432 kts 254°
2026-05-05 14:58 -31.12401 -63.53927 27939 ft 433 kts 254°
2026-05-05 14:58 -31.13362 -63.57273 27944 ft 433 kts 254°
2026-05-05 14:58 -31.14318 -63.60603 27938 ft 433 kts 254°
2026-05-05 14:59 -31.15250 -63.63856 27941 ft 433 kts 254°
2026-05-05 14:59 -31.16226 -63.67262 27936 ft 433 kts 254°
2026-05-05 14:59 -31.17182 -63.70606 27944 ft 433 kts 254°
2026-05-05 14:59 -31.18136 -63.73944 27936 ft 433 kts 254°
2026-05-05 15:00 -31.19073 -63.77225 27945 ft 433 kts 254°
2026-05-05 15:00 -31.19716 -63.79479 27943 ft 432 kts 254°
2026-05-05 15:00 -31.20986 -63.83940 27949 ft 432 kts 254°
2026-05-05 15:00 -31.21934 -63.87272 27948 ft 432 kts 254°
2026-05-05 15:01 -31.22881 -63.90605 27953 ft 432 kts 254°
2026-05-05 15:01 -31.23827 -63.93939 27955 ft 432 kts 254°
2026-05-05 15:01 -31.24755 -63.97211 27958 ft 432 kts 254°
2026-05-05 15:01 -31.25678 -64.00468 27959 ft 432 kts 254°
2026-05-05 15:02 -31.26617 -64.03790 27961 ft 432 kts 254°
2026-05-05 15:02 -31.27562 -64.07132 27966 ft 432 kts 255°
2026-05-05 15:02 -31.28505 -64.10473 27968 ft 432 kts 255°
2026-05-05 15:02 -31.29446 -64.13809 27966 ft 432 kts 255°
2026-05-05 15:03 -31.30385 -64.17143 27967 ft 432 kts 255°
2026-05-05 15:03 -31.31315 -64.20394 27965 ft 433 kts 253°
2026-05-05 15:03 -31.32448 -64.23763 27962 ft 434 kts 251°
2026-05-05 15:03 -31.33603 -64.27018 27968 ft 434 kts 251°
2026-05-05 15:04 -31.34768 -64.30272 27974 ft 434 kts 250°
2026-05-05 15:04 -31.35929 -64.33514 27966 ft 434 kts 250°
2026-05-05 15:04 -31.37082 -64.36749 27970 ft 434 kts 251°
2026-05-05 15:04 -31.38243 -64.40019 27968 ft 434 kts 251°
2026-05-05 15:05 -31.40554 -64.46561 27965 ft 435 kts 251°
2026-05-05 15:05 -31.41706 -64.49835 27963 ft 435 kts 251°
2026-05-05 15:05 -31.42826 -64.53020 27959 ft 434 kts 251°
2026-05-05 15:06 -31.44002 -64.56369 27960 ft 434 kts 251°
2026-05-05 15:06 -31.45154 -64.59648 27961 ft 434 kts 251°
2026-05-05 15:06 -31.46301 -64.62920 27967 ft 433 kts 251°
2026-05-05 15:06 -31.47445 -64.66186 27960 ft 433 kts 251°
2026-05-05 15:07 -31.48573 -64.69408 27956 ft 433 kts 251°
2026-05-05 15:07 -31.49713 -64.72667 27956 ft 433 kts 251°
2026-05-05 15:07 -31.50829 -64.75864 27951 ft 432 kts 251°
2026-05-05 15:07 -31.51988 -64.79184 27950 ft 432 kts 251°
2026-05-05 15:08 -31.53129 -64.82456 27961 ft 432 kts 251°
2026-05-05 15:08 -31.54267 -64.85725 27965 ft 433 kts 251°
2026-05-05 15:08 -31.55405 -64.88994 27961 ft 433 kts 251°
2026-05-05 15:08 -31.56541 -64.92262 27958 ft 434 kts 251°
2026-05-05 15:09 -31.57681 -64.95545 27961 ft 434 kts 251°
2026-05-05 15:09 -31.58820 -64.98829 27968 ft 434 kts 251°
2026-05-05 15:09 -31.59915 -65.01987 27964 ft 434 kts 251°
2026-05-05 15:09 -31.61055 -65.05279 27958 ft 434 kts 251°
2026-05-05 15:10 -31.62160 -65.08473 27949 ft 433 kts 251°
2026-05-05 15:10 -31.63318 -65.11825 27939 ft 433 kts 251°
2026-05-05 15:10 -31.64449 -65.15098 27939 ft 432 kts 251°
2026-05-05 15:10 -31.65578 -65.18369 27938 ft 432 kts 251°
2026-05-05 15:11 -31.66702 -65.21631 27940 ft 431 kts 251°
2026-05-05 15:11 -31.67815 -65.24857 27937 ft 431 kts 251°
2026-05-05 15:11 -31.68940 -65.28120 27935 ft 432 kts 251°
2026-05-05 15:11 -31.70075 -65.31414 27938 ft 432 kts 251°
2026-05-05 15:12 -31.71193 -65.34666 27930 ft 432 kts 251°
2026-05-05 15:12 -31.72312 -65.37921 27926 ft 432 kts 251°
2026-05-05 15:12 -31.73442 -65.41210 27939 ft 432 kts 251°
2026-05-05 15:12 -31.74563 -65.44480 27918 ft 432 kts 251°
2026-05-05 15:13 -31.75674 -65.47720 27922 ft 432 kts 251°
2026-05-05 15:13 -31.76807 -65.51032 27916 ft 432 kts 251°
2026-05-05 15:13 -31.77926 -65.54303 27912 ft 432 kts 251°
2026-05-05 15:13 -31.79045 -65.57579 27917 ft 432 kts 251°
2026-05-05 15:14 -31.79786 -65.59749 27917 ft 432 kts 251°
2026-05-05 15:14 -31.80904 -65.63027 27928 ft 432 kts 252°
2026-05-05 15:14 -31.82020 -65.66305 27927 ft 432 kts 252°
2026-05-05 15:14 -31.83136 -65.69584 27921 ft 432 kts 252°
2026-05-05 15:15 -31.84252 -65.72866 27914 ft 432 kts 252°
2026-05-05 15:15 -31.85365 -65.76142 27920 ft 432 kts 252°
2026-05-05 15:15 -31.86470 -65.79398 27924 ft 432 kts 252°
2026-05-05 15:15 -31.87592 -65.82707 27924 ft 432 kts 252°
2026-05-05 15:16 -31.88701 -65.85983 27919 ft 432 kts 252°
2026-05-05 15:16 -31.89813 -65.89268 27921 ft 432 kts 252°
2026-05-05 15:16 -31.90920 -65.92544 27919 ft 432 kts 252°
2026-05-05 15:16 -31.92031 -65.95833 27926 ft 432 kts 252°
2026-05-05 15:17 -31.93141 -65.99122 27924 ft 432 kts 252°
2026-05-05 15:17 -31.94195 -66.02261 27921 ft 432 kts 252°
2026-05-05 15:17 -31.95293 -66.05549 27922 ft 432 kts 252°
2026-05-05 15:17 -31.96379 -66.08813 27918 ft 432 kts 252°
2026-05-05 15:18 -31.97485 -66.12140 27919 ft 432 kts 252°
2026-05-05 15:18 -31.98583 -66.15447 27915 ft 432 kts 252°
2026-05-05 15:18 -31.99677 -66.18742 27913 ft 432 kts 252°
2026-05-05 15:18 -32.00755 -66.21990 27916 ft 432 kts 252°
2026-05-05 15:19 -32.01846 -66.25281 27928 ft 432 kts 252°
2026-05-05 15:19 -32.02942 -66.28588 27927 ft 432 kts 252°
2026-05-05 15:19 -32.04019 -66.31845 27923 ft 432 kts 252°
2026-05-05 15:19 -32.05110 -66.35147 27918 ft 433 kts 252°
2026-05-05 15:20 -32.06201 -66.38449 27912 ft 433 kts 252°
2026-05-05 15:20 -32.07287 -66.41741 27914 ft 433 kts 252°
2026-05-05 15:20 -32.08385 -66.45072 27913 ft 433 kts 252°
2026-05-05 15:20 -32.09475 -66.48382 27913 ft 433 kts 252°
2026-05-05 15:21 -32.10521 -66.51686 27906 ft 432 kts 255°
2026-05-05 15:21 -32.11381 -66.55099 27910 ft 430 kts 257°
2026-05-05 15:21 -32.12186 -66.58499 27912 ft 430 kts 258°
2026-05-05 15:21 -32.12986 -66.61903 27909 ft 431 kts 258°
2026-05-05 15:22 -32.13788 -66.65313 27913 ft 431 kts 258°
2026-05-05 15:22 -32.14591 -66.68720 27911 ft 431 kts 257°
2026-05-05 15:22 -32.15395 -66.72124 27914 ft 431 kts 257°
2026-05-05 15:22 -32.16203 -66.75535 27911 ft 431 kts 257°
2026-05-05 15:23 -32.17001 -66.78904 27915 ft 431 kts 257°
2026-05-05 15:23 -32.17807 -66.82309 27916 ft 431 kts 257°
2026-05-05 15:23 -32.18616 -66.85730 27915 ft 431 kts 257°
2026-05-05 15:23 -32.19419 -66.89128 27915 ft 431 kts 257°
2026-05-05 15:24 -32.20228 -66.92554 27924 ft 432 kts 258°
2026-05-05 15:24 -32.21033 -66.95974 27921 ft 432 kts 258°
2026-05-05 15:24 -32.21833 -66.99374 27924 ft 432 kts 258°
2026-05-05 15:24 -32.22616 -67.02705 27923 ft 433 kts 258°
2026-05-05 15:25 -32.23420 -67.06131 27927 ft 433 kts 258°
2026-05-05 15:25 -32.24212 -67.09511 27920 ft 433 kts 258°
2026-05-05 15:25 -32.25029 -67.13001 27921 ft 434 kts 258°
2026-05-05 15:25 -32.25832 -67.16438 27916 ft 434 kts 258°
2026-05-05 15:26 -32.26623 -67.19825 27923 ft 433 kts 258°
2026-05-05 15:26 -32.27425 -67.23262 27926 ft 434 kts 258°
2026-05-05 15:26 -32.28225 -67.26700 27917 ft 434 kts 258°
2026-05-05 15:26 -32.29011 -67.30083 27917 ft 434 kts 258°
2026-05-05 15:27 -32.29829 -67.33605 27921 ft 434 kts 258°
2026-05-05 15:27 -32.30627 -67.37046 27921 ft 434 kts 258°
2026-05-05 15:27 -32.31425 -67.40494 27921 ft 435 kts 258°
2026-05-05 15:27 -32.32222 -67.43941 27921 ft 435 kts 258°
2026-05-05 15:28 -32.33018 -67.47385 27918 ft 435 kts 258°
2026-05-05 15:28 -32.33815 -67.50842 27918 ft 435 kts 258°
2026-05-05 15:28 -32.34598 -67.54244 27918 ft 435 kts 258°
2026-05-05 15:28 -32.35394 -67.57706 27922 ft 436 kts 258°
2026-05-05 15:29 -32.36190 -67.61168 27919 ft 437 kts 258°
2026-05-05 15:29 -32.36989 -67.64653 27921 ft 438 kts 258°
2026-05-05 15:29 -32.37786 -67.68136 27931 ft 439 kts 258°
2026-05-05 15:29 -32.38568 -67.71551 27926 ft 439 kts 258°
2026-05-05 15:30 -32.39380 -67.75105 27922 ft 439 kts 258°
2026-05-05 15:30 -32.40178 -67.78606 27927 ft 439 kts 258°
2026-05-05 15:30 -32.40973 -67.82093 27928 ft 439 kts 258°
2026-05-05 15:30 -32.41746 -67.85494 27929 ft 439 kts 258°
2026-05-05 15:31 -32.42551 -67.89035 27927 ft 439 kts 258°
2026-05-05 15:31 -32.43343 -67.92524 27925 ft 439 kts 258°
2026-05-05 15:31 -32.44134 -67.96021 27926 ft 439 kts 258°
2026-05-05 15:31 -32.44914 -67.99468 27926 ft 438 kts 258°
2026-05-05 15:32 -32.45681 -68.02864 27929 ft 438 kts 258°
2026-05-05 15:32 -32.46470 -68.06358 27925 ft 438 kts 258°
2026-05-05 15:32 -32.47249 -68.09816 27924 ft 438 kts 258°
2026-05-05 15:32 -32.48041 -68.13341 27929 ft 438 kts 258°
2026-05-05 15:33 -32.48826 -68.16834 27918 ft 438 kts 258°
2026-05-05 15:33 -32.49592 -68.20248 27928 ft 438 kts 258°
2026-05-05 15:33 -32.50383 -68.23782 27926 ft 440 kts 258°
2026-05-05 15:33 -32.51168 -68.27291 27927 ft 441 kts 258°
2026-05-05 15:34 -32.51951 -68.30792 27934 ft 442 kts 258°
2026-05-05 15:34 -32.52742 -68.34340 27935 ft 443 kts 258°
2026-05-05 15:34 -32.53529 -68.37873 27936 ft 444 kts 258°
2026-05-05 15:34 -32.54315 -68.41416 27937 ft 445 kts 258°
2026-05-05 15:35 -32.55098 -68.44958 27927 ft 445 kts 258°
2026-05-05 15:35 -32.55873 -68.48468 27935 ft 445 kts 258°
2026-05-05 15:35 -32.56663 -68.52047 27936 ft 444 kts 258°
2026-05-05 15:35 -32.57444 -68.55595 27933 ft 445 kts 258°
2026-05-05 15:36 -32.58214 -68.59095 27932 ft 445 kts 258°
2026-05-05 15:36 -32.59008 -68.62713 27934 ft 446 kts 258°
2026-05-05 15:36 -32.59790 -68.66278 27936 ft 447 kts 258°
2026-05-05 15:36 -32.60571 -68.69842 27934 ft 447 kts 258°
2026-05-05 15:37 -32.61353 -68.73416 27936 ft 447 kts 258°
2026-05-05 15:37 -32.62124 -68.76947 27939 ft 447 kts 258°
2026-05-05 15:37 -32.62896 -68.80489 27958 ft 448 kts 258°
2026-05-05 15:37 -32.63683 -68.84103 27930 ft 449 kts 258°
2026-05-05 15:38 -32.64464 -68.87692 27931 ft 449 kts 258°
2026-05-05 15:38 -32.65244 -68.91285 27933 ft 450 kts 258°
2026-05-05 15:38 -32.66024 -68.94886 27944 ft 451 kts 258°
2026-05-05 15:38 -32.66808 -68.98506 27932 ft 452 kts 258°
2026-05-05 15:39 -32.67560 -69.01985 27930 ft 452 kts 258°
2026-05-05 15:39 -32.68343 -69.05607 27943 ft 453 kts 258°
2026-05-05 15:39 -32.69123 -69.09227 27930 ft 454 kts 258°
2026-05-05 15:39 -32.69899 -69.12836 27925 ft 453 kts 258°
2026-05-05 15:40 -32.70683 -69.16484 27935 ft 453 kts 258°
2026-05-05 15:40 -32.71462 -69.20115 27934 ft 453 kts 258°
2026-05-05 15:40 -32.72239 -69.23742 27956 ft 453 kts 258°
2026-05-05 15:40 -32.73016 -69.27379 27959 ft 454 kts 258°
2026-05-05 15:41 -32.73792 -69.31015 27958 ft 454 kts 258°
2026-05-05 15:41 -32.74568 -69.34652 27947 ft 454 kts 258°
2026-05-05 15:41 -32.75331 -69.38230 27963 ft 452 kts 258°
2026-05-05 15:41 -32.76102 -69.41857 27981 ft 452 kts 258°
2026-05-05 15:42 -32.76869 -69.45474 27968 ft 451 kts 258°
2026-05-05 15:42 -32.78392 -69.52666 28011 ft 451 kts 258°
2026-05-05 15:43 -32.79874 -69.59661 28030 ft 429 kts 259°
2026-05-05 15:43 -32.81342 -69.66644 28134 ft 434 kts 258°
2026-05-05 15:44 -32.82801 -69.73616 28106 ft 435 kts 258°
2026-05-05 15:44 -32.84247 -69.80514 28160 ft 433 kts 259°
2026-05-05 15:45 -32.85690 -69.87427 28225 ft 424 kts 259°
2026-05-05 15:45 -32.87081 -69.94109 28165 ft 408 kts 259°
2026-05-05 15:46 -32.88221 -70.00611 28159 ft 410 kts 269°
2026-05-05 15:46 -32.87711 -70.07374 28163 ft 413 kts 278°
2026-05-05 15:47 -32.87028 -70.14188 28154 ft 416 kts 277°
2026-05-05 15:47 -32.86392 -70.20983 28080 ft 415 kts 277°
2026-05-05 15:48 -32.85777 -70.27709 28123 ft 409 kts 277°
2026-05-05 15:48 -32.85511 -70.30605 27628 ft 395 kts 277°
2026-05-05 15:48 -32.85269 -70.33250 26805 ft 384 kts 278°
2026-05-05 15:48 -32.84981 -70.36369 25579 ft 376 kts 278°
2026-05-05 15:49 -32.84695 -70.39435 24360 ft 371 kts 278°
2026-05-05 15:49 -32.84410 -70.42474 23019 ft 368 kts 278°
2026-05-05 15:49 -32.84124 -70.45497 21462 ft 367 kts 279°
2026-05-05 15:49 -32.83837 -70.48528 19855 ft 370 kts 279°
2026-05-05 15:50 -32.83551 -70.51568 18421 ft 371 kts 279°
2026-05-05 15:50 -32.83265 -70.54604 17096 ft 366 kts 279°
2026-05-05 15:50 -32.82994 -70.57499 16554 ft 343 kts 279°
2026-05-05 15:50 -32.82741 -70.60208 16210 ft 317 kts 279°
2026-05-05 15:51 -32.82502 -70.62726 15741 ft 299 kts 280°
2026-05-05 15:51 -32.82271 -70.65146 15099 ft 289 kts 280°
2026-05-05 15:51 -32.82075 -70.67508 14331 ft 287 kts 273°
2026-05-05 15:51 -32.82467 -70.69855 13409 ft 297 kts 251°
2026-05-05 15:52 -32.83563 -70.71967 12475 ft 305 kts 231°
2026-05-05 15:52 -32.85112 -70.73711 11632 ft 307 kts 226°
2026-05-05 15:52 -32.86696 -70.75390 10979 ft 301 kts 227°
2026-05-05 15:52 -32.88228 -70.77048 10379 ft 294 kts 227°
2026-05-05 15:53 -32.89719 -70.78681 9634 ft 291 kts 227°
2026-05-05 15:53 -32.91204 -70.80285 9104 ft 280 kts 220°
2026-05-05 15:53 -32.92938 -70.81291 8849 ft 288 kts 193°
2026-05-05 15:53 -32.94976 -70.81618 8571 ft 296 kts 188°
2026-05-05 15:54 -32.97010 -70.81899 8264 ft 300 kts 188°
2026-05-05 15:54 -32.99070 -70.82174 8107 ft 294 kts 186°
2026-05-05 15:54 -33.01100 -70.82267 7678 ft 294 kts 180°
2026-05-05 15:54 -33.03127 -70.82200 7340 ft 288 kts 178°
2026-05-05 15:55 -33.05079 -70.82089 7038 ft 272 kts 177°
2026-05-05 15:55 -33.06897 -70.81985 6775 ft 250 kts 177°
2026-05-05 15:55 -33.08555 -70.81894 6521 ft 228 kts 177°
2026-05-05 15:55 -33.10054 -70.81813 6297 ft 203 kts 177°
2026-05-05 15:56 -33.11411 -70.81742 6088 ft 189 kts 178°
2026-05-05 15:56 -33.12708 -70.81672 5959 ft 186 kts 178°
2026-05-05 15:56 -33.14016 -70.81604 5749 ft 189 kts 178°
2026-05-05 15:56 -33.15327 -70.81535 5551 ft 188 kts 177°
2026-05-05 15:57 -33.16630 -70.81465 5343 ft 186 kts 178°
2026-05-05 15:57 -33.17894 -70.81399 5147 ft 177 kts 178°
2026-05-05 15:57 -33.19119 -70.81333 5023 ft 177 kts 178°
2026-05-05 15:57 -33.20357 -70.81266 4790 ft 177 kts 178°
2026-05-05 15:58 -33.21573 -70.81203 4551 ft 173 kts 178°
2026-05-05 15:58 -33.22766 -70.81140 4321 ft 171 kts 178°
2026-05-05 15:58 -33.23961 -70.81077 4129 ft 173 kts 178°
2026-05-05 15:58 -33.25146 -70.81014 3895 ft 171 kts 179°
2026-05-05 15:59 -33.26323 -70.80951 3675 ft 167 kts 179°
2026-05-05 15:59 -33.27488 -70.80890 3453 ft 164 kts 179°
2026-05-05 15:59 -33.28606 -70.80829 3266 ft 163 kts 179°
2026-05-05 15:59 -33.29748 -70.80770 3045 ft 164 kts 178°
2026-05-05 16:00 -33.30883 -70.80710 2821 ft 163 kts 179°
2026-05-05 16:00 -33.32021 -70.80651 2624 ft 166 kts 179°
2026-05-05 16:00 -33.33184 -70.80590 2378 ft 167 kts 179°
2026-05-05 16:00 -33.33950 -70.80544 2252 ft 166 kts 179°
2026-05-05 16:01 -33.35096 -70.80483 2014 ft 166 kts 178°
2026-05-05 16:01 -33.36250 -70.80420 1839 ft 167 kts 178°
2026-05-05 16:01 -33.37423 -70.80366 1622 ft 168 kts 178°
2026-05-05 16:01 -33.38536 -70.80301 1578 ft 147 kts 178°
2026-05-05 16:02 -33.39408 -70.80255 1576 ft 103 kts 177°
2026-05-05 16:02 -33.39819 -70.80231 1577 ft 30 kts 177°
2026-05-05 16:02 -33.39971 -70.80157 1576 ft 7 kts 147°
2026-05-05 16:02 -33.40017 -70.80122 1575 ft 9 kts 146°
2026-05-05 16:03 -33.40048 -70.80096 1574 ft 0 kts 144°
2026-05-05 16:03 -33.40063 -70.80082 1573 ft 9 kts 144°
2026-05-05 16:03 -33.40152 -70.79991 1571 ft 21 kts 117°
2026-05-05 16:03 -33.40110 -70.79910 1570 ft 11 kts
2026-05-05 16:04 -33.39998 -70.79911 1570 ft 26 kts 358°
2026-05-05 16:04 -33.39817 -70.79926 1570 ft 24 kts 355°
2026-05-05 16:04 -33.39649 -70.79937 1569 ft 24 kts 358°
2026-05-05 16:04 -33.39481 -70.79944 1569 ft 24 kts 358°
2026-05-05 16:05 -33.39367 -70.79940 1569 ft 11 kts 31°
2026-05-05 16:05 -33.39343 -70.79854 1569 ft 11 kts 88°
2026-05-05 16:05 -33.39338 -70.79733 1569 ft 19 kts 86°
2026-05-05 16:05 -33.39330 -70.79576 1569 ft 19 kts 86°
2026-05-05 16:06 -33.39323 -70.79418 1569 ft 19 kts 86°
2026-05-05 16:06 -33.39317 -70.79260 1569 ft 19 kts 87°
2026-05-05 16:06 -33.39311 -70.79102 1569 ft 19 kts 88°
2026-05-05 16:06 -33.39311 -70.78945 1569 ft 16 kts 105°
2026-05-05 16:07 -33.39407 -70.78899 1569 ft 16 kts 177°
2026-05-05 16:07 -33.39519 -70.78892 1569 ft 16 kts 175°
2026-05-05 16:07 -33.39631 -70.78885 1569 ft 16 kts 177°
2026-05-05 16:07 -33.39743 -70.78878 1569 ft 16 kts 179°
2026-05-05 16:08 -33.39854 -70.78875 1569 ft 16 kts 178°
2026-05-05 16:08 -33.39966 -70.78866 1569 ft 16 kts 177°
2026-05-05 16:08 -33.40077 -70.78861 1568 ft 16 kts 178°
2026-05-05 16:08 -33.40189 -70.78855 1568 ft 16 kts 178°
2026-05-05 16:09 -33.40301 -70.78851 1568 ft 16 kts 179°
2026-05-05 16:09 -33.40414 -70.78849 1568 ft 16 kts 176°
2026-05-05 16:09 -33.40526 -70.78843 1568 ft 16 kts 177°
2026-05-05 16:09 -33.40637 -70.78845 1568 ft 16 kts 199°
2026-05-05 16:10 -33.40694 -70.78903 1569 ft 6 kts 224°
2026-05-05 16:10 -33.40713 -70.78925 1569 ft 0 kts 225°
2026-05-05 16:10 -33.40713 -70.78926 1569 ft 0 kts 225°